Regional Weather Roundup
Issued by NWS

Home | Current Version | Previous Version | Graphics & Text | Print | Product List | Glossary On
Versions: 1 2 3 4 5 6 7 8 9 10 11 12 13 14 15 16 17 18 19 20 21 22 23 24 25 26 27 28 29 30 31 32 33 34 35 36 37 38 39 40 41 42 43 44 45 46 47 48 49 50
000
ASUS43 KOAX 260110
RWRNE

WEATHER ROUNDUP FOR NEBRASKA
NATIONAL WEATHER SERVICE OMAHA NE
800 PM CDT TUE JUL 25 2017

NOTES: SATELLITE DATA IS BEING USED TO AUGMENT CLOUD COVER ABOVE
       12000 FEET.
       "FAIR" INDICATES FEW OR NO CLOUDS BELOW 12,000 FEET WITH NO
       SIGNIFICANT WEATHER AND/OR OBSTRUCTIONS TO VISIBILITY.


NEZ001>004-019>022-054>056-260200-
NEBRASKA PANHANDLE

CITY           SKY/WX    TMP DP  RH WIND       PRES   REMARKS
SCOTTSBLUFF    PTSUNNY   87  59  38 NE12      29.99R
ALLIANCE       CLOUDY    88  58  36 NE14      29.96R
CHADRON        MOSUNNY   86  55  34 NE20G28   29.97R
GORDON         FAIR      84  63  48 NE9       29.98R
KIMBALL        PTSUNNY   84  55  36 NW17G23   30.06R
SIDNEY         CLOUDY    92  52  25 S3        29.98R
$$

NEZ057>060-069>072-079>082-260200-
SOUTHWEST NEBRASKA

CITY           SKY/WX    TMP DP  RH WIND       PRES   REMARKS
NORTH PLATTE   MOSUNNY   94  63  35 S13G20    29.87S HX  95
IMPERIAL       MOSUNNY   94  56  27 S13       29.89R HX  92
LEXINGTON      PTCLDY    89  70  52 SE13      29.89S HX  94
MCCOOK         CLOUDY    96  64  34 S13G20    29.87S HX  98
OGALLALA       CLOUDY    94  61  33 SE8       29.88S HX  94
$$

NEZ005>010-023>029-035>040-094-260200-
NORTH CENTRAL NEBRASKA

CITY           SKY/WX    TMP DP  RH WIND       PRES   REMARKS
VALENTINE      LGT RAIN  77  66  68 E6        29.92R
AINSWORTH      CLOUDY    75  64  69 N17G26    29.90F
BROKEN BOW     MOSUNNY   91  67  44 S15G26    29.89F HX  94
O`NEILL        CLOUDY    87  71  57 S10       29.88S HX  92
ORD            CLOUDY    89  64  43 SE14      29.88  HX  90
THEDFORD       CLOUDY    93  65  38 SE14G21   29.88F HX  95
$$

NEZ041-046>049-061>064-073>077-083>087-260200-
SOUTH CENTRAL NEBRASKA

CITY           SKY/WX    TMP DP  RH WIND       PRES   REMARKS
GRAND ISLAND   CLOUDY    86  68  54 SE13      29.91R
AURORA         PTCLDY    84  67  56 SE9       29.92R
HASTINGS       CLEAR     88  66  48 SE14      29.93R HX  90
HEBRON         CLEAR     90  67  47 SE10G16   29.93R HX  93
HOLDREGE       CLEAR     87  67  50 SE9       29.90S
KEARNEY        CLEAR     88  69  53 SE12      29.91R HX  92
YORK           PTCLDY    86  68  54 S8        29.93R
$$

NEZ011>018-030>034-042>045-260200-
NORTHEAST NEBRASKA

CITY           SKY/WX    TMP DP  RH WIND       PRES   REMARKS
NORFOLK        MOCLDY    87  66  49 S12       29.89F
ALBION         PTCLDY    87  68  53 S12       29.90F HX  91
BLAIR          CLOUDY    88  73  60 SE9       29.95R HX  96
COLUMBUS       PTCLDY    88  70  55 SE9       29.92S HX  93
FREMONT        CLOUDY    90  68  48 SE10      29.93S HX  93
TEKAMAH        CLOUDY    87  75  67 SE13      29.91S HX  96
WAYNE          CLOUDY    88  72  58 S10       29.89F HX  94
$$

NEZ050>053-065>068-078-088>093-260200-
SOUTHEAST NEBRASKA

CITY           SKY/WX    TMP DP  RH WIND       PRES   REMARKS
LINCOLN        CLEAR     91  67  44 S13       29.93R HX  94
OMAHA EPPLEY   CLOUDY    90  71  53 SE20      29.95R HX  96
BEATRICE       CLEAR     92  68  45 S12G18    29.95R HX  96
FALLS CITY     CLEAR     87  71  58 SE8       29.96R HX  93
NEBRASKA CITY  PTCLDY    86  70  58 S9        29.96R HX  91
PLATTSMOUTH    MOCLDY    87  71  59 SE8       29.97R HX  92
$$

NEZ044-045-051>053-067-260200-
OMAHA AREA

CITY           SKY/WX    TMP DP  RH WIND       PRES   REMARKS
OMAHA EPPLEY   CLOUDY    90  71  53 SE20      29.95R HX  96
BLAIR          CLOUDY    88  73  60 SE9       29.95R HX  96
FREMONT        CLOUDY    90  68  48 SE10      29.93S HX  93
MILLARD        CLOUDY    91  75  60 SE13      29.94R HX 101
OFFUTT AFB     CLEAR     88  73  61 SE13      29.95R HX  95
PLATTSMOUTH    MOCLDY    87  71  59 SE8       29.97R HX  92
WAHOO          FAIR      86  72  62 SE7       29.94R HX  92
$$




USA.gov is the U.S. government's official web portal to all federal, state and local government web resources and services.